IRIDIUM 156 (43576 NORAD) Tracking and Keplerian Element Data

This shows tracking and keplerian element data for the satellite.

Feedback or suggestion? Click here.




ElementValue
Catalog43576
NameIRIDIUM 156
Epoch Orbit417
Epoch Day235.32919525
Epoch Year2018
RAAN169.7944
Inclination86.4023
Eccentricity0.0001784
Argument of Perigee86.9716
Mean Anonmoly273.1683
Mean Motion14.34217788
Decay Rate3.5E-07
L11 43576U 18061H 18235.32919525 .00000035 00000-0 53856-5 0 9996
L22 43576 86.4023 169.7944 0001784 86.9716 273.1683 14.34217788 4174

Live tracking and technical data element details for IRIDIUM 156 (NORAD 43576). IRIDIUM 156 can be tracked NOW for your location showing map with azimuth and elevation plus other details from your city location.

Track the satellite on the map from your city or location and see movement details for azimuth, elevation, latitude, longitude, range, height, and movement on the map or in text.







IsCatalogInMostPopularTable: catalog: 43576, numindb: 43
Update: records affected: 1



GetName: 43576 IRIDIUM 156

Hit Count: updated at: Tue, 13 Nov 2018 07:32:10 GMT